Location: Songkhla
(7.2000°N, 100.6000°E)
Time: 08:49:30
(UTC+07:00)

ISS - All Passes

Search period start: 19 December 2018 00:00
Search period end: 29 December 2018 00:00
Orbit: 401 x 408 km, 51.6° (Epoch: 19 December)

Date Brightness Start Highest point End Pass type
(mag) Time Alt. Az. Time Alt. Az. Time Alt. Az.
19 Dec - 06:08:34 10° S 06:11:26 28° SE 06:14:18 10° ENE daylight
19 Dec - 17:38:58 10° NNW 17:42:12 82° NE 17:45:26 10° SE daylight
20 Dec - 05:18:18 10° SE 05:19:20 11° SE 05:20:22 10° ESE visible
20 Dec - 06:52:58 10° WSW 06:55:36 22° NW 06:58:14 10° N daylight
20 Dec - 16:47:15 10° N 16:50:04 27° NE 16:52:52 10° ESE daylight
21 Dec - 06:00:12 10° SW 06:03:26 62° NW 06:06:41 10° NNE visible
21 Dec - 15:56:55 10° NE 15:57:52 11° NE 15:58:49 10° ENE daylight
21 Dec - 17:31:35 10° WNW 17:34:11 22° SW 17:36:47 10° S daylight
22 Dec - 05:08:11 10° SSW 05:11:19 41° SE 05:14:25 10° NE visible
22 Dec - 16:38:51 10° NW 16:42:03 65° SW 16:45:16 10° SSE daylight
23 Dec - 04:17:07 10° SSE 04:19:10 16° SE 04:21:13 10° E visible
23 Dec - 05:53:19 10° W 05:55:27 16° NW 05:57:35 10° N visible
23 Dec - 15:46:51 10° NNW 15:49:54 39° NE 15:52:57 10° SE daylight
24 Dec - 05:00:07 10° SW 05:03:15 41° NW 05:06:22 10° NNE visible
24 Dec - 14:55:42 10° NNE 14:57:41 15° NE 14:59:39 10° E daylight
24 Dec - 16:31:52 10° W 16:33:58 16° SW 16:36:03 10° SSW daylight
25 Dec - 04:07:50 10° SSW 04:11:04 62° SE 04:14:18 10° NE night (unlit)
25 Dec - 15:38:42 10° NW 15:41:48 43° SW 15:44:54 10° SSE daylight
26 Dec - 03:16:18 10° S 03:18:54 21° SE 03:21:29 10° ENE night (unlit)
26 Dec - 04:53:56 10° WNW 04:55:13 12° NW 04:56:29 10° NNW night (unlit)
26 Dec - 14:46:25 10° NNW 14:49:37 58° NE 14:52:48 10° SE daylight
27 Dec - 04:00:03 10° WSW 04:02:56 29° NW 04:05:50 10° N night (unlit)
27 Dec - 13:54:51 10° N 13:57:22 21° NE 13:59:53 10° ESE daylight
27 Dec - 15:32:27 10° WSW 15:33:37 11° SW 15:34:48 10° SW daylight
28 Dec - 03:07:26 10° SW 03:10:43 87° NW 03:13:59 10° NE night (unlit)
28 Dec - 14:38:33 10° WNW 14:41:25 29° SW 14:44:18 10° S daylight
